Location: Neuvy Saint Sepulchre
(46.5953°N, 1.8122°E)
Time: 10:49:23
(UTC+02:00)

ISS - Pass Details

Date: 18 March 2024
Orbit: 413 x 419 km, 51.6° (Epoch: 13 April)

Event Time Altitude Azimuth Distance (km) Brightness Sun altitude
Rises 21:20:15 0° 276° (W) 2,365 1.2 -23.6°
Reaches altitude 10° 21:22:28 10° 285° (WNW) 1,504 0.1 -23.9°
Enters shadow 21:25:07 33° 333° (NNW) 735 -2.1 -24.3°
